Dewpoint
71 72 74 75 74 74 75 76 76 76 76 77 77 76 76 77 77 77 77 77 77 77 77 77 77 77 76 76 76 76 76 76 76 76 76 75 75 75 75 75 75 75 75 75 75 76 76 75 75 76 76 76 75 75 75 75 76 76 75 75 75 75 75 75 74 75 75 75 75 74 75 75 75 75 75 75 74 74 75 75 74 74 74 73 74
71 74 73 74 74 75 75 76 76 76 76 76 76 77 77 77 77 77 77 77 77 77 77 77 76 76 76 76 76 76 76 76 76 76 75 75 75 75 75 75 75 75 75 75 75 76 76 75 75 75 76 76 75 75 75 76 75 75 75 75 75 75 75 74 75 75 75 75 75 74 75 74 75 75 75 74 75 75 75 74 74 74 73 73 74
74 73 73 74 74 75 75 76 76 76 76 76 76 77 77 77 77 77 77 77 76 76 76 76 76 76 76 76 76 76 76 76 76 75 75 75 75 75 75 75 75 75 75 75 75 76 76 76 75 75 76 75 75 75 75 75 76 76 76 75 75 75 75 75 75 75 74 74 74 75 75 75 75 74 75 75 75 75 74 74 75 74 72 74 73
73 73 73 74 75 75 76 76 76 76 76 76 76 77 77 77 77 77 77 76 76 77 76 76 76 76 76 76 76 76 75 75 75 75 75 75 75 75 75 75 75 75 75 75 75 75 75 75 74 76 76 76 75 75 75 75 75 75 75 75 75 75 75 75 75 75 76 76 76 75 75 74 74 74 74 74 75 74 74 75 74 74 74 75 74
73 73 73 74 75 76 76 76 76 76 76 76 77 76 77 77 77 77 77 77 76 76 76 76 76 76 76 76 75 75 75 75 75 75 75 75 76 76 75 75 75 75 75 75 75 75 75 75 75 75 75 75 75 75 75 75 75 75 75 75 75 75 75 76 76 75 76 76 76 75 73 73 73 74 74 74 75 75 74 74 74 74 74 74 74
73 74 74 74 75 76 76 76 76 76 76 76 77 76 76 76 77 77 76 76 76 76 76 76 76 76 76 76 76 75 75 75 75 75 76 75 75 75 75 75 74 75 75 75 75 75 75 74 75 75 75 76 76 75 75 75 75 75 75 74 75 75 76 75 75 75 76 76 75 74 73 73 73 73 74 75 74 74 74 74 74 74 74 74 73
74 74 74 75 75 76 76 76 76 76 76 76 77 76 76 77 77 77 76 77 76 76 76 76 76 76 76 76 76 75 74 75 75 75 76 76 75 75 75 74 74 74 74 74 74 75 75 75 75 76 76 75 75 75 75 75 75 75 75 75 75 75 75 76 76 76 75 74 72 72 73 73 73 73 74 74 75 74 74 74 74 75 74 73 73
74 74 75 75 75 76 77 76 76 76 76 76 77 76 77 77 77 77 76 76 76 76 76 76 76 76 76 76 76 75 75 75 76 76 76 75 75 75 74 74 74 75 75 75 74 75 74 75 75 75 75 74 75 74 75 74 75 75 75 75 74 75 75 75 76 75 75 72 72 72 72 73 73 73 74 74 74 74 73 74 74 74 74 74 74
74 74 75 75 75 77 77 76 76 76 76 76 76 77 76 76 76 76 76 76 76 76 76 76 76 75 76 75 75 75 75 75 75 75 75 75 75 75 75 74 75 75 74 74 75 75 75 75 75 75 74 74 75 75 75 75 75 75 75 75 75 75 75 75 75 75 73 72 72 72 72 73 73 73 73 73 73 74 73 73 74 74 73 73 73
74 74 75 75 76 77 76 76 76 75 76 76 76 76 76 76 76 76 76 76 76 76 76 76 75 75 75 75 75 75 75 75 75 75 75 75 75 74 75 74 74 74 75 75 75 75 75 75 74 75 75 75 74 74 75 74 74 74 74 75 75 75 75 75 75 75 72 72 73 73 74 75 72 72 73 74 74 74 74 74 74 73 73 73 73
74 74 75 75 76 77 76 76 76 75 76 76 76 76 76 76 75 75 75 75 76 75 75 76 75 75 75 75 74 75 74 74 75 75 75 74 75 75 75 74 74 74 74 74 74 74 74 74 75 75 75 74 74 74 75 75 75 74 74 74 74 75 75 75 75 72 73 72 72 73 74 74 71 71 73 73 73 73 73 73 73 73 73 73 73
74 75 75 76 77 77 76 76 77 77 76 76 76 76 76 76 75 75 76 76 76 75 75 75 75 75 75 74 74 74 75 75 75 75 75 75 75 75 75 74 74 74 74 74 74 74 74 74 75 74 74 75 74 75 74 74 75 74 74 74 74 75 75 75 73 72 72 72 73 73 72 72 72 73 73 73 73 73 73 73 73 73 73 73 73
74 74 75 76 76 76 76 76 76 76 76 76 76 76 76 75 75 75 76 76 75 75 75 75 75 75 74 74 74 75 75 74 74 74 75 75 75 75 74 74 74 75 74 75 74 74 74 74 74 74 74 74 75 75 75 75 75 75 74 74 74 75 76 75 72 72 72 72 72 72 72 72 73 74 73 74 74 73 73 73 73 73 74 74 73
74 74 75 76 76 76 75 76 76 76 76 76 76 76 75 75 75 75 75 75 75 75 75 76 75 74 74 74 74 74 74 74 74 75 75 75 74 75 75 74 74 74 74 75 75 74 74 74 74 74 74 74 75 75 75 74 74 74 75 75 75 76 76 75 74 72 73 73 74 73 72 73 73 74 74 74 74 73 73 73 74 74 73 73 73
73 74 75 76 75 75 76 76 76 76 76 76 76 75 75 75 75 75 75 75 75 76 75 75 74 74 74 75 74 74 74 74 74 74 74 74 74 74 74 74 74 74 74 74 74 74 74 74 75 75 75 74 75 74 74 74 74 75 75 75 75 75 75 73 72 72 73 73 73 72 72 72 74 74 74 74 73 73 73 73 73 73 73 73 73
74 75 75 75 75 76 75 76 76 76 76 76 75 75 75 75 75 75 75 75 75 75 75 75 74 74 74 75 75 75 75 74 75 74 74 75 75 74 74 74 74 74 74 74 74 74 74 75 75 75 75 75 75 75 75 75 75 75 75 74 75 75 75 74 72 71 71 72 72 73 72 72 74 74 74 73 73 73 73 73 73 73 73 73 73
74 75 75 75 75 75 76 76 75 76 75 75 75 75 76 75 75 75 76 75 75 75 75 75 75 75 75 75 75 75 75 74 74 74 74 75 74 74 74 74 75 75 75 74 74 75 75 75 75 74 74 74 75 75 74 75 75 74 75 75 75 75 75 74 72 71 72 73 73 72 73 73 75 74 73 73 73 73 73 73 73 73 73 73 73
74 74 74 75 75 75 75 75 75 75 74 75 76 76 76 75 75 75 76 76 75 75 75 75 75 75 75 76 74 75 75 75 75 74 74 74 74 74 74 75 75 75 75 75 74 75 75 75 74 75 74 74 74 74 74 75 75 74 74 75 75 75 75 74 72 72 72 74 72 74 73 73 75 73 73 73 73 73 73 73 73 73 73 73 73
74 74 75 75 75 75 75 75 75 75 74 75 75 75 75 75 75 76 76 76 75 75 76 76 76 75 76 75 74 75 75 75 75 74 75 74 75 74 75 75 75 74 74 75 74 75 75 75 75 75 74 74 74 75 75 75 74 74 74 74 75 75 75 74 72 72 72 72 72 72 72 74 74 74 73 73 73 73 73 73 73 73 73 73 73
74 74 74 75 75 75 75 75 75 75 75 75 75 75 75 76 76 75 76 76 76 76 76 76 75 75 75 75 75 75 75 74 75 74 74 75 74 74 75 75 74 74 74 75 75 75 75 76 75 75 74 74 74 75 75 75 75 74 73 74 74 76 72 71 71 71 71 72 72 71 74 74 74 74 73 73 73 74 74 73 73 73 73 73 73
73 74 74 75 75 75 75 75 75 74 74 75 75 75 75 76 76 76 76 76 76 75 75 75 75 75 74 74 75 75 75 74 75 75 74 76 74 74 75 75 75 75 75 75 75 75 74 75 75 75 74 74 74 74 74 75 75 75 75 75 76 72 71 71 71 73 72 72 73 72 75 74 74 74 73 74 74 73 73 73 74 74 73 73 73
73 73 74 74 75 75 74 74 74 74 74 75 75 75 75 75 74 75 76 75 75 75 75 75 75 75 74 75 75 76 74 74 75 75 76 74 74 75 75 75 75 75 75 75 75 75 75 75 75 75 74 74 74 74 74 74 74 74 75 75 72 71 71 71 71 72 72 71 72 73 74 73 73 73 73 72 73 73 72 73 73 73 74 74 74
72 73 73 74 74 74 74 74 74 74 74 74 75 75 74 75 75 75 75 76 75 76 75 75 74 74 75 75 75 74 74 75 75 75 76 75 76 75 75 75 75 75 75 75 75 75 74 74 74 75 74 75 74 73 74 74 73 75 75 72 71 71 71 71 71 71 70 72 71 74 73 72 73 73 73 73 73 73 73 73 73 73 73 73 73
71 72 73 74 74 74 74 74 73 74 74 74 74 74 74 74 74 75 75 75 75 75 74 74 74 74 74 74 74 75 74 74 75 75 75 75 74 75 75 75 75 75 75 76 75 75 74 74 74 74 77 75 74 73 73 73 72 70 70 71 71 71 71 71 71 71 71 73 72 74 74 74 74 74 74 74 74 74 74 73 73 73 73 73 73
71 72 73 73 74 74 74 73 74 74 74 74 74 74 74 74 74 74 75 74 74 74 74 74 74 74 74 74 74 74 74 74 74 74 74 74 74 74 75 74 74 74 77 73 74 75 75 74 74 76 74 75 73 73 73 73 73 71 70 71 71 71 71 72 71 71 71 71 73 75 75 74 74 74 74 74 74 74 74 74 73 73 73 73 73
71 71 72 73 73 74 73 73 74 74 74 74 74 75 74 74 74 74 74 74 74 74 74 74 74 74 74 74 75 74 74 73 73 73 73 73 73 73 74 73 74 74 76 73 73 73 73 74 74 74 74 74 74 73 73 74 72 72 71 71 72 71 71 71 71 71 71 71 74 75 75 75 74 74 74 74 74 74 74 74 74 73 74 73 73
71 71 72 72 73 73 73 73 73 74 74 74 74 75 74 74 74 74 74 74 74 74 74 74 74 74 74 75 74 73 73 73 73 72 72 73 73 73 73 73 73 73 74 73 73 73 73 74 74 74 73 74 74 73 73 73 72 72 71 71 72 71 71 71 71 71 70 71 74 75 74 74 74 73 73 74 74 74 74 74 74 74 74 74 73
70 71 71 72 73 73 73 73 73 73 73 74 74 74 74 74 74 76 74 75 74 73 74 74 74 74 74 75 75 73 72 72 72 72 72 72 73 72 73 73 73 73 74 74 73 73 73 73 73 73 74 74 74 73 73 72 72 71 70 71 71 71 71 71 71 71 71 71 73 73 73 73 73 73 73 73 74 74 74 73 73 74 73 73 73
70 70 71 72 72 73 73 73 73 73 73 74 74 74 74 74 75 74 73 76 73 73 74 74 74 74 75 75 75 73 72 72 72 72 72 72 72 73 73 73 73 73 74 74 74 73 73 73 73 73 73 73 73 73 72 72 71 70 70 70 71 71 71 71 71 71 71 71 72 73 74 73 73 73 73 73 73 73 73 73 73 73 73 73 72
70 70 70 71 72 72 72 73 73 73 73 73 74 73 73 73 74 74 73 75 73 73 74 73 73 74 74 75 75 73 73 73 73 73 72 72 72 73 73 72 72 73 73 73 73 73 73 73 71 71 71 72 72 72 73 71 70 70 69 70 71 71 72 71 71 72 71 72 71 74 74 74 74 74 74 73 73 73 73 73 73 73 72 72 72
70 70 70 71 72 72 72 73 73 74 73 73 73 73 73 73 74 74 73 75 73 74 74 73 73 73 73 74 75 74 73 74 73 73 72 72 72 72 72 72 72 72 72 72 73 74 73 72 71 71 72 72 73 71 72 70 70 69 70 70 70 71 72 72 72 72 72 72 72 73 74 74 74 74 74 74 73 73 73 73 73 73 73 72 72
70 70 70 71 71 72 72 72 72 73 73 73 74 73 73 73 74 74 73 74 74 73 73 72 74 72 73 74 74 74 76 74 73 73 73 73 72 72 72 72 72 72 72 72 72 73 74 73 74 74 74 73 72 70 71 70 69 69 69 69 70 71 71 72 72 72 73 72 72 73 73 74 75 74 74 74 74 74 74 73 73 73 73 73 73
70 70 71 71 71 71 71 72 72 73 72 72 73 72 72 72 73 73 73 74 73 73 72 72 72 72 73 74 74 74 76 74 74 74 75 72 72 72 72 73 72 72 74 74 74 74 74 73 74 74 74 72 72 71 71 69 69 68 69 69 69 71 71 72 72 72 73 73 73 73 73 74 74 75 74 74 74 74 74 74 73 73 73 73 73
70 70 71 71 71 71 71 71 72 72 72 72 72 72 72 72 73 73 74 73 73 72 72 71 72 73 74 74 74 74 75 74 74 73 73 72 73 73 72 72 73 74 75 75 73 73 72 73 73 72 75 73 71 71 70 68 68 68 68 68 69 70 71 71 72 72 73 73 73 73 73 73 73 74 74 74 75 74 74 74 74 74 74 73 73
70 70 70 71 71 71 71 71 72 72 73 71 72 71 71 71 72 71 73 72 72 71 71 71 72 73 74 74 73 74 75 74 74 73 73 73 73 73 73 73 74 75 74 74 73 72 72 73 74 71 72 72 72 73 69 67 67 67 68 68 68 70 71 71 71 71 72 72 73 73 73 73 73 74 74 73 76 75 75 74 74 74 74 74 74
69 70 70 71 71 71 71 71 72 71 72 71 71 71 71 71 71 72 72 72 71 71 70 71 72 74 74 73 73 74 75 75 74 74 73 73 73 73 73 74 75 74 73 74 73 72 73 73 74 71 69 71 71 69 69 67 66 67 68 68 68 71 71 71 71 71 71 72 72 73 73 73 73 73 75 73 73 75 75 75 75 75 75 75 75
69 70 70 71 70 70 72 71 71 71 71 70 71 70 70 70 70 71 71 71 70 70 70 72 74 74 74 73 73 74 75 75 75 74 73 73 73 73 74 75 75 73 73 73 72 74 73 74 72 75 71 71 70 69 69 67 67 67 67 67 67 70 70 71 71 70 71 71 71 72 72 73 74 76 74 74 73 74 75 75 75 75 75 75 75
69 69 70 71 70 70 71 71 71 71 71 70 70 70 70 70 69 70 72 70 70 70 71 73 74 75 74 73 73 74 76 75 75 74 73 74 74 74 74 74 74 73 72 72 71 73 73 73 73 74 74 71 70 69 69 69 67 67 67 66 67 69 70 70 71 74 71 71 71 71 72 72 73 74 74 74 74 73 73 74 75 76 76 75 75
68 69 70 71 70 70 71 71 71 71 70 70 70 69 69 69 69 69 70 70 70 71 73 74 74 75 74 74 74 75 76 75 75 75 73 74 74 74 74 74 75 74 73 72 73 75 74 72 72 72 73 73 72 71 71 71 70 66 65 65 67 68 69 69 72 73 71 71 71 72 72 72 72 73 73 74 73 73 73 73 73 73 74 75 75
68 69 70 70 69 69 70 70 71 70 70 69 69 68 68 69 68 69 70 71 71 72 73 74 74 74 75 75 75 75 76 75 75 74 74 74 73 74 74 75 74 73 72 72 72 72 73 72 72 73 71 72 72 72 71 69 67 66 67 66 67 67 67 69 70 71 72 71 71 73 71 72 72 72 73 73 73 73 73 72 74 73 73 74 75
67 69 69 69 69 69 69 69 70 70 69 68 68 67 67 67 68 68 69 70 71 72 73 74 74 74 75 75 76 76 75 75 76 74 74 76 74 74 74 74 74 73 73 72 72 72 73 73 73 74 72 69 69 70 71 66 64 63 65 65 65 67 71 70 68 69 70 71 71 72 72 72 72 72 73 73 73 73 73 72 72 73 73 72 73
66 68 68 68 68 68 69 69 69 69 69 68 68 67 67 67 67 67 67 69 71 72 72 73 74 74 75 76 76 75 75 75 76 75 74 74 74 74 74 74 74 73 72 73 72 77 74 72 72 70 72 70 70 72 71 64 63 62 61 61 65 64 69 70 67 67 68 69 70 71 72 72 72 72 73 73 73 73 73 72 72 72 72 73 73
66 67 67 67 68 68 69 69 69 68 68 68 68 67 67 68 66 67 66 67 70 71 72 72 74 74 75 76 76 75 75 75 76 76 75 74 74 74 74 74 74 74 73 72 74 73 72 73 71 70 70 71 73 73 69 65 64 66 64 62 59 59 64 63 65 66 66 66 68 69 71 71 71 72 72 73 73 73 73 73 72 72 72 72 72
66 66 66 66 67 69 69 69 69 68 68 68 69 67 68 69 67 66 65 67 69 71 71 72 74 74 75 75 76 75 75 76 76 76 76 75 74 73 74 74 74 75 73 72 73 72 72 72 72 73 70 68 69 69 73 71 68 63 59 60 59 60 57 59 60 61 65 63 64 66 70 70 70 70 71 72 72 73 73 73 73 72 72 72 72
65 65 66 66 67 68 68 69 69 68 68 69 69 67 69 68 68 66 68 69 70 69 70 72 73 74 74 75 75 76 76 76 76 76 76 75 74 73 73 74 74 74 74 73 73 73 72 72 71 72 71 68 68 69 70 72 69 67 65 62 59 58 58 59 60 61 64 61 61 64 68 68 68 68 70 71 72 72 73 73 73 72 72 72 72
64 65 65 66 67 67 68 68 69 68 68 68 69 68 69 67 66 65 64 66 67 68 69 70 72 73 74 75 75 76 76 76 76 76 76 75 74 73 73 74 74 74 74 74 73 72 72 72 72 72 72 71 68 69 68 69 73 74 67 64 62 59 59 61 59 57 63 69 68 62 64 66 66 66 67 69 70 71 73 72 72 73 73 72 72
63 64 65 65 67 67 68 68 68 68 68 68 69 69 68 67 66 65 63 65 67 68 69 71 72 73 74 74 75 76 76 76 76 76 76 76 74 74 74 74 75 75 75 73 73 73 73 73 73 72 72 74 69 67 67 67 68 69 72 71 70 68 65 60 58 58 55 59 62 62 60 62 63 62 64 66 67 68 69 71 71 71 72 73 73
63 64 64 65 66 67 67 68 68 69 68 68 69 68 67 67 66 65 65 64 66 68 70 71 72 73 74 74 75 75 76 76 76 76 76 76 75 74 75 74 74 75 76 75 74 74 74 74 73 73 73 73 70 67 67 68 66 66 74 72 70 72 66 65 62 59 58 55 56 62 63 61 62 61 63 63 65 65 66 68 69 69 69 71 72
62 63 63 65 66 67 68 68 68 69 69 69 69 68 68 67 66 65 65 65 66 68 71 72 73 74 73 74 74 75 75 76 76 76 75 75 76 75 75 75 75 75 77 75 74 74 74 73 73 73 73 73 72 70 68 68 68 67 67 66 68 68 67 66 66 65 62 58 57 60 59 62 61 62 63 64 65 65 65 66 67 69 69 69 69
61 63 63 64 66 67 67 67 67 68 68 69 69 68 68 68 67 66 65 65 67 67 69 71 72 72 72 73 74 74 75 75 75 75 75 75 76 76 75 75 75 75 76 76 75 74 73 73 73 73 73 72 72 72 69 68 70 69 69 67 65 65 62 61 63 61 62 59 56 57 61 60 58 61 63 63 63 64 64 65 66 67 68 68 69
61 62 63 64 66 67 67 67 67 68 69 69 69 68 68 68 67 66 66 65 66 66 68 70 71 71 71 72 73 73 74 74 74 74 74 74 75 76 75 74 75 76 76 76 75 74 74 73 73 73 73 73 72 73 73 72 71 71 70 68 66 64 61 61 61 63 61 59 57 58 62 64 59 59 61 62 64 63 64 65 65 65 67 68 69